Glenwood, MN

3:43 AM CDT on July 28, 2017 (GMT -0500)
Glenwood Municipal

Weather History for KGHW - February, 2013

Change the Weather History Date:

Friday, February 8, 2013

  Actual Average Record
Temperature  
Mean Temperature 15 °F -  
Max Temperature 24 °F 21 °F 50 °F (2002)
Min Temperature 6 °F 0 °F -30 °F (1971)
Degree Days  
Heating Degree Days 50    
Moisture  
Dew Point 14 °F    
Average Humidity 90    
Maximum Humidity 100    
Minimum Humidity 69    
Precipitation  
Precipitation 0.00 in - - ()
Sea Level Pressure  
Sea Level Pressure 30.22 in    
Wind  
Wind Speed 9 mph (ESE)    
Max Wind Speed 23 mph    
Max Gust Speed 28 mph    
Visibility 8 miles    
Events Fog , Snow    
Averages and records for this station are not official NWS values.
T = Trace of Precipitation, MM = Missing Value Source: NWS Daily Summary

Daily Weather History Graph

Daily Weather History Graph

Search for Another Location

Airport or City:

Trip Planner

Search our weather history database for the weather conditions in past years. The results will help you decide how hot, cold, wet, or windy it might be!

Date:

Astronomy

Feb. 08, 2013 Rise Set
Actual Time 7:33 AM CST 5:38 PM CST
Civil Twilight 7:02 AM CST 6:09 PM CST
Nautical Twilight 6:27 AM CST 6:44 PM CST
Astronomical Twilight 5:52 AM CST 7:19 PM CST
Moon 6:05 AM CST (2/8) 4:11 PM CST (2/8)
Length of Visible Light 11h 07m
Length of Day
10h 05m
Waning Crescent, 3% of the Moon is Illuminated
Feb 8
Waning Crescent
Feb 10
New
Feb 17
First Quarter
Feb 25
Full
Mar 4
Last Quarter

Hourly Weather History & Observations

Time (CST) Temp. Windchill Dew Point Humidity Pressure Visibility Wind Dir Wind Speed Gust Speed Precip Events Conditions
12:13 AM 12.2 °F 2.9 °F 10.4 °F 92% 30.27 in 10.0 mi North 5.8 mph - N/A   Clear
12:34 AM 10.4 °F 2.2 °F 8.6 °F 92% 30.27 in 7.0 mi North 4.6 mph - N/A   Clear
12:53 AM 10.4 °F 2.2 °F 8.6 °F 92% 30.27 in 7.0 mi North 4.6 mph - N/A   Clear
1:13 AM 8.6 °F -1.3 °F 6.8 °F 92% 30.26 in 7.0 mi North 5.8 mph - N/A   Clear
1:34 AM 10.4 °F 4.0 °F 8.6 °F 92% 30.26 in 7.0 mi NE 3.5 mph - N/A   Clear
1:53 AM 8.6 °F 0.1 °F 6.8 °F 92% 30.26 in 7.0 mi NE 4.6 mph - N/A   Clear
2:13 AM 8.6 °F 0.1 °F 6.8 °F 92% 30.27 in 7.0 mi NE 4.6 mph - N/A   Clear
2:33 AM 8.6 °F 0.1 °F 8.6 °F 100% 30.27 in 7.0 mi NNE 4.6 mph - N/A   Clear
2:53 AM 8.6 °F 0.1 °F 6.8 °F 92% 30.27 in 7.0 mi NNE 4.6 mph - N/A   Clear
3:13 AM 6.8 °F -2.0 °F 6.8 °F 100% 30.28 in 7.0 mi NNE 4.6 mph - N/A   Clear
3:33 AM 8.6 °F 0.1 °F 6.8 °F 92% 30.28 in 7.0 mi NE 4.6 mph - N/A   Clear
3:53 AM 8.6 °F - 6.8 °F 92% 30.28 in 7.0 mi Calm Calm - N/A   Clear
4:14 AM 8.6 °F 2.0 °F 6.8 °F 92% 30.29 in 7.0 mi NNE 3.5 mph - N/A   Clear
4:33 AM 8.6 °F 2.0 °F 6.8 °F 92% 30.29 in 7.0 mi NE 3.5 mph - N/A   Clear
4:53 AM 8.6 °F 2.0 °F 6.8 °F 92% 30.29 in 7.0 mi NE 3.5 mph - N/A   Clear
5:14 AM 8.6 °F 0.1 °F 6.8 °F 92% 30.29 in 5.0 mi ENE 4.6 mph - N/A   Clear
5:53 AM 8.6 °F 2.0 °F 6.8 °F 92% 30.30 in 3.0 mi East 3.5 mph - N/A   Clear
6:14 AM 8.6 °F 2.0 °F 6.8 °F 92% 30.29 in 5.0 mi East 3.5 mph - N/A   Clear
6:33 AM 8.6 °F 2.0 °F 6.8 °F 92% 30.29 in 5.0 mi East 3.5 mph - N/A   Clear
6:53 AM 6.8 °F -2.0 °F 3.2 °F 85% 30.28 in 5.0 mi East 4.6 mph - N/A   Clear
7:14 AM 6.8 °F -2.0 °F 5.0 °F 92% 30.28 in 7.0 mi East 4.6 mph - N/A   Clear
7:33 AM 6.8 °F -0.1 °F 5.0 °F 92% 30.28 in 7.0 mi East 3.5 mph - N/A   Clear
7:53 AM 6.8 °F -2.0 °F 6.8 °F 100% 30.29 in 4.0 mi ESE 4.6 mph - N/A   Scattered Clouds
8:14 AM 8.6 °F -1.3 °F 6.8 °F 92% 30.29 in 0.2 mi ESE 5.8 mph - N/A Fog Light Freezing Fog
8:33 AM 8.6 °F -1.3 °F 6.8 °F 92% 30.30 in 0.2 mi ESE 5.8 mph - N/A Snow Light Snow
8:53 AM 10.4 °F 2.2 °F 8.6 °F 92% 30.29 in 0.2 mi ESE 4.6 mph - N/A Fog Light Freezing Fog
9:14 AM 10.4 °F 2.2 °F 10.4 °F 100% 30.29 in 2.0 mi ESE 4.6 mph - N/A   Overcast
9:33 AM 12.2 °F 4.3 °F 12.2 °F 100% 30.29 in 7.0 mi ESE 4.6 mph - N/A   Scattered Clouds
9:53 AM 14.0 °F 8.2 °F 12.2 °F 93% 30.29 in 10.0 mi ESE 3.5 mph - N/A   Clear
10:14 AM 15.8 °F 7.2 °F 14.0 °F 93% 30.29 in 10.0 mi ESE 5.8 mph - N/A   Clear
10:59 AM 17.6 °F 7.3 °F 17.6 °F 100% 30.30 in 10.0 mi SE 8.1 mph - N/A   Clear
11:13 AM 19.4 °F 6.6 °F 17.6 °F 93% 30.30 in 10.0 mi SE 12.7 mph - N/A   Clear
11:33 AM 19.4 °F 6.0 °F 15.8 °F 86% 30.30 in 10.0 mi SE 13.8 mph - N/A   Clear
11:53 AM 19.4 °F 7.2 °F 15.8 °F 86% 30.29 in 10.0 mi ESE 11.5 mph - N/A   Clear
12:13 PM 21.2 °F 10.1 °F 15.8 °F 80% 30.27 in 10.0 mi ESE 10.4 mph - N/A   Clear
12:33 PM 21.2 °F 8.3 °F 15.8 °F 80% 30.26 in 10.0 mi ESE 13.8 mph - N/A   Clear
12:53 PM 23.0 °F 11.1 °F 17.6 °F 80% 30.25 in 10.0 mi SE 12.7 mph - N/A   Clear
1:13 PM 23.0 °F 10.6 °F 15.8 °F 74% 30.24 in 10.0 mi SE 13.8 mph - N/A   Clear
1:33 PM 24.8 °F 13.4 °F 15.8 °F 69% 30.24 in 10.0 mi ESE 12.7 mph - N/A   Clear
1:54 PM 24.8 °F 13.4 °F 17.6 °F 74% 30.23 in 10.0 mi SE 12.7 mph - N/A   Clear
2:13 PM 24.8 °F 11.9 °F 17.6 °F 74% 30.23 in 10.0 mi SE 16.1 mph - N/A   Clear
2:33 PM 24.8 °F 11.9 °F 17.6 °F 74% 30.21 in 10.0 mi SE 16.1 mph 20.7 mph N/A   Scattered Clouds
2:54 PM 24.8 °F 11.5 °F 17.6 °F 74% 30.21 in 10.0 mi SE 17.3 mph 20.7 mph N/A   Clear
3:13 PM 21.2 °F 7.3 °F 17.6 °F 86% 30.20 in 10.0 mi ESE 16.1 mph - N/A   Scattered Clouds
3:33 PM 21.2 °F 6.0 °F 17.6 °F 86% 30.19 in 10.0 mi SE 19.6 mph 23.0 mph N/A   Mostly Cloudy
3:54 PM 21.2 °F 6.4 °F 17.6 °F 86% 30.19 in 10.0 mi SE 18.4 mph 24.2 mph N/A   Scattered Clouds
4:13 PM 21.2 °F 6.0 °F 17.6 °F 86% 30.17 in 10.0 mi SE 19.6 mph 24.2 mph N/A   Scattered Clouds
4:33 PM 21.2 °F 7.8 °F 17.6 °F 86% 30.17 in 10.0 mi SE 15.0 mph 21.9 mph N/A   Scattered Clouds
4:54 PM 21.2 °F 6.4 °F 17.6 °F 86% 30.16 in 10.0 mi SE 18.4 mph 23.0 mph N/A   Clear
5:13 PM 21.2 °F 6.4 °F 17.6 °F 86% 30.16 in 10.0 mi SE 18.4 mph - N/A   Clear
5:33 PM 21.2 °F 7.3 °F 17.6 °F 86% 30.14 in 10.0 mi ESE 16.1 mph 24.2 mph N/A   Mostly Cloudy
5:53 PM 21.2 °F 7.8 °F 17.6 °F 86% 30.15 in 10.0 mi SE 15.0 mph - N/A   Overcast
6:13 PM 21.2 °F 7.3 °F 19.4 °F 93% 30.15 in 10.0 mi SE 16.1 mph 24.2 mph N/A   Overcast
6:33 PM 21.2 °F 7.8 °F 19.4 °F 93% 30.14 in 10.0 mi SE 15.0 mph 21.9 mph N/A   Overcast
6:53 PM 21.2 °F 6.4 °F 19.4 °F 93% 30.14 in 10.0 mi SE 18.4 mph 25.3 mph N/A   Overcast
7:13 PM 21.2 °F 5.6 °F 19.4 °F 93% 30.15 in 10.0 mi SE 20.7 mph 25.3 mph N/A   Overcast
7:53 PM 21.2 °F 5.6 °F 19.4 °F 93% 30.14 in 10.0 mi SE 20.7 mph 26.5 mph N/A   Overcast
8:13 PM 21.2 °F 6.8 °F 19.4 °F 93% 30.14 in 10.0 mi SE 17.3 mph - N/A   Overcast
8:34 PM 21.2 °F 5.2 °F 19.4 °F 93% 30.13 in 10.0 mi SE 21.9 mph - N/A   Overcast
8:53 PM 21.2 °F 6.0 °F 19.4 °F 93% 30.12 in 10.0 mi SE 19.6 mph 26.5 mph N/A   Overcast
9:13 PM 21.2 °F 5.6 °F 19.4 °F 93% 30.12 in 10.0 mi SE 20.7 mph 25.3 mph N/A   Overcast
9:34 PM 21.2 °F 5.6 °F 19.4 °F 93% 30.12 in 10.0 mi SE 20.7 mph 25.3 mph N/A   Overcast
9:53 PM 21.2 °F 6.8 °F 19.4 °F 93% 30.11 in 10.0 mi SE 17.3 mph 23.0 mph N/A   Overcast
10:13 PM 21.2 °F 6.0 °F 19.4 °F 93% 30.11 in 10.0 mi SE 19.6 mph 25.3 mph N/A   Overcast
10:34 PM 21.2 °F 6.4 °F 21.2 °F 100% 30.10 in 10.0 mi SE 18.4 mph - N/A   Overcast
10:53 PM 21.2 °F 6.0 °F 21.2 °F 100% 30.09 in 10.0 mi SE 19.6 mph 24.2 mph N/A   Overcast
11:13 PM 21.2 °F 5.2 °F 21.2 °F 100% 30.07 in 10.0 mi SE 21.9 mph 26.5 mph N/A   Overcast
11:34 PM 23.0 °F 7.2 °F 21.2 °F 93% 30.07 in 10.0 mi SE 23.0 mph 26.5 mph N/A   Overcast
11:53 PM 23.0 °F 8.0 °F 21.2 °F 93% 30.06 in 10.0 mi SE 20.7 mph 27.6 mph N/A   Overcast